This is the latest recevied weather packets stored in our database for station/object N9BSW. If no packets are shown the sender has not sent any weather packets the latest 1 day(s).
| Time | Temp. | Humidity | Pressure | Rain* | Wind** | Luminosity | Snow |
|---|---|---|---|---|---|---|---|
| 1778025546 | 8.89° C | 95% | 1007.8 hPa | 0 mm | 1.34 m/s, 78° | 11 W/m² | - |
| 1778025244 | 8.89° C | 95% | 1007.9 hPa | 0 mm | 0.45 m/s, 130° | 21 W/m² | - |
| 1778024940 | 8.89° C | 95% | 1008.2 hPa | 0 mm | 1.79 m/s, 49° | 36 W/m² | - |
| 1778024638 | 8.89° C | 95% | 1008.4 hPa | 0 mm | 0.45 m/s, 113° | 28 W/m² | - |
| 1778024334 | 8.89° C | 95% | 1008.3 hPa | 0 mm | 0.89 m/s, 53° | 25 W/m² | - |
| 1778024032 | 8.89° C | 96% | 1008.2 hPa | 0 mm | 0.89 m/s, 146° | 17 W/m² | - |
| 1778023729 | 8.89° C | 96% | 1008.7 hPa | 0 mm | 0.89 m/s, 42° | 15 W/m² | - |
| 1778023428 | 8.89° C | 96% | 1009 hPa | 0 mm | 0.45 m/s, 154° | 18 W/m² | - |
| 1778023124 | 8.89° C | 96% | 1008.5 hPa | 0 mm | 1.79 m/s, 56° | 28 W/m² | - |
| 1778022821 | 8.89° C | 96% | 1008.4 hPa | 0 mm | 1.79 m/s, 55° | 29 W/m² | - |
| 1778022519 | 8.89° C | 96% | 1008.4 hPa | 0 mm | 0.45 m/s, 63° | 16 W/m² | - |
| 1778022216 | 8.89° C | 96% | 1009.1 hPa | 0 mm | 0.45 m/s, 79° | 12 W/m² | - |
| 1778021913 | 8.89° C | 96% | 1008.6 hPa | 0 mm | 0.45 m/s, 355° | 13 W/m² | - |
| 1778021611 | 8.89° C | 95% | 1008.6 hPa | 0 mm | 0.45 m/s, 87° | 25 W/m² | - |
| 1778021311 | 8.89° C | 95% | 1008.6 hPa | 0 mm | 0.45 m/s, 151° | 31 W/m² | - |
| 1778021009 | 9.44° C | 96% | 1008.6 hPa | 0 mm | 0.89 m/s, 128° | 25 W/m² | - |
| 1778020706 | 9.44° C | 96% | 1009 hPa | 0 mm | 0.89 m/s, 156° | 20 W/m² | - |
| 1778020403 | 9.44° C | 96% | 1008.8 hPa | 0 mm | 0.45 m/s, 121° | 23 W/m² | - |
| 1778020099 | 9.44° C | 97% | 1008.5 hPa | 0 mm | 0 m/s | 32 W/m² | - |
| 1778019795 | 9.44° C | 97% | 1008.5 hPa | 0 mm | 0.89 m/s, 344° | 49 W/m² | - |
| 1778019492 | 10° C | 97% | 1008.6 hPa | 0 mm | 1.34 m/s, 146° | 42 W/m² | - |
| 1778019189 | 10° C | 97% | 1008.6 hPa | 0 mm | 1.79 m/s, 93° | 34 W/m² | - |
| 1778018886 | 10° C | 97% | 1008.7 hPa | 0 mm | 0.89 m/s, 90° | 29 W/m² | - |
| 1778018583 | 10° C | 97% | 1009.1 hPa | 0 mm | 1.34 m/s, 51° | 27 W/m² | - |
| 1778018281 | 10° C | 97% | 1009 hPa | 0 mm | 1.34 m/s, 60° | 26 W/m² | - |
* Rain latest hour (hover to see other rain measurements)
** Current wind speed in m/s (hover to see current wind gust speed)